This demonstration page uses our WeatherBlox Daily Observations layout. Learn more.

Left ArrowRight Arrow

39.01783, -85.05884

Hourly Observations for September 27, 2017

Temp ( °F °C ) Dew Point ( °F °C ) Humidity (%) Winds ( mph kmh ) Pressure ( in mb ) Visibility ( mi km ) Precip ( " mm )
12:52 am 00:52 Clear 68 20 64 17.8 87 87 Calm 29.95 1014 10 16 0.00 0.00
1:52 am 01:52 Clear 67 19.4 65 18.3 93 93 Calm 29.95 1014 10 16 0.00 0.00
2:52 am 02:52 Clear 66 18.9 64 17.8 93 93 Calm 29.95 1014 10 16 0.00 0.00
3:52 am 03:52 Clear 64 17.8 64 17.8 100 100 Calm 29.95 1014 10 16 0.00 0.00
4:52 am 04:52 Clear 64 17.8 64 17.8 100 100 S 3 6 29.94 1014 10 16 0.00 0.00
5:52 am 05:52 Clear 64 17.8 64 17.8 100 100 Calm 29.95 1014 10 16 0.00 0.00
6:52 am 06:52 Clear 63 17.2 63 17.2 100 100 Calm 29.96 1015 8 13 0.00 0.00
7:52 am 07:52 Sunny 65 18.3 64 17.8 97 97 Calm 29.96 1015 8 13 0.00 0.00
8:52 am 08:52 Sunny 69 20.6 67 19.4 93 93 Calm 29.98 1015 9 14 0.00 0.00
9:52 am 09:52 Sunny 77 25 67 19.4 71 71 W 3 6 29.97 1015 10 16 0.00 0.00
10:52 am 10:52 Sunny 82 27.8 67 19.4 60 60 VRB 5 7 29.97 1015 10 16 0.00 0.00
11:52 am 11:52 Sunny 85 29.4 68 20 57 57 VRB 3 6 29.96 1015 10 16 0.00 0.00
12:52 pm 12:52 Sunny 87 30.6 67 19.4 51 51 Calm 29.95 1014 10 16 0.00 0.00
1:52 pm 13:52 Mostly Sunny 88 31.1 67 19.4 50 50 W 8 13 29.93 1014 10 16 0.00 0.00
1:58 pm 13:58 Mostly Sunny 88 31.1 66 18.9 48 48 WNW 9 15 29.91 1013 10 16 0.00 0.00
2:52 pm 14:52 Mostly Cloudy 90 32.2 65 18.3 44 44 NNW 15 24 29.93 1013 10 16 0.00 0.00
3:52 pm 15:52 Partly Cloudy 87 30.6 66 18.9 50 50 NW 12 19 29.93 1013 10 16 0.00 0.00
4:52 pm 16:52 Partly Cloudy 87 30.6 66 18.9 50 50 NW 15 24 29.92 1013 10 16 0.00 0.00
5:52 pm 17:52 Mostly Sunny 85 29.4 67 19.4 55 55 NW 14 22 29.93 1014 10 16 0.00 0.00
6:52 pm 18:52 Mostly Sunny 82 27.8 67 19.4 60 60 NNW 13 20 29.94 1014 10 16 0.00 0.00
7:52 pm 19:52 Partly Cloudy 78 25.6 66 18.9 67 67 NNW 15 24 29.96 1014 10 16 0.00 0.00
8:52 pm 20:52 Clear 75 23.9 65 18.3 71 71 NNW 9 15 29.98 1015 10 16 0.00 0.00
9:52 pm 21:52 Clear 73 22.8 62 16.7 69 69 NNW 13 20 30.00 1016 10 16 0.00 0.00
10:52 pm 22:52 Mostly Clear 70 21.1 59 15 68 68 N 13 20 30.01 1016 10 16 0.00 0.00
11:52 pm 23:52 Clear 68 20 57 13.9 68 68 N 13 20 30.01 1016 10 16 0.00 0.00

Powered by AerisWeather